Location: Pebble Beach Sunset Acres
(33.0837°N, 96.4508°W)
Time: 04:00:36
(UTC+00:00)

Sich 1 - Pass Details

Date: 30 June 2022
Orbit: 593 x 623 km, 82.5° (Epoch: 07 August)

Event Time Altitude Azimuth Distance (km) Brightness Sun altitude
Exits shadow 09:42:28 - 160° (SSE) 2,270 5.7 -17.4°
Reaches altitude 10° 09:43:18 10° 156° (SSE) 1,955 5.4 -17.2°
Maximum altitude 09:47:12 34° 91° (E) 1,009 4.6 -16.6°
Drops below altitude 10° 09:51:05 10° 27° (NNE) 1,950 6.7 -16.0°
Sets 09:53:26 0° 18° (NNE) 2,852 7.5 -15.7°
